[[{"header":{"parameterUnit":"m.s-1","parameterCategory":1,"la1":30.2991,"la2":30.254,"lo1":-89.0895,"lo2":-89.0444,"dy":0.0017,"dx":0.0017,"nx":28,"ny":28,"refTime":"2024-07-16T21:00:00:Z","depth":0,"parameterNumber":2,"parameterNumberName":"U-component_of_WINDS"},"data":[0,0,0,0,0,0,0,0,0,0,0,0,0,0,0,0,0,0,0,0,0,0,0,0,0,0,0,0,0,0,0,0,0,0,0,0,0,0,0,0,0,0,0,0,0,0,0,0,0,0,0,0,0,0,0,0,0,0,0.941,0.9411,0,0.9504,0.9506,0.9507,0.9549,0.9549,0.9549,0.9548,0.9643,0.9645,0.9648,0,0,0,0,0,0,0,0,0,0,0,0,0,0.926,0.9263,0.9409,0.9411,0.9412,0.9504,0.9506,0.9507,0.9549,0.9549,0.9548,0.9548,0.9642,0.9645,0.9648,0,0,0,0,0,0,0,0,0,0,0,0,0,0.9337,0.9264,0.9409,0.9444,0.9448,0.9504,0.9506,0.9507,0.9549,0.9549,0.9548,0.9548,0.9641,0.9645,0.9649,0.9676,0,0,0.9661,0.9662,0,0,0,0,0,0,0,0,0.9333,0.9342,0.9438,0.9442,0.9446,0.9515,0.9488,0.9564,0.9549,0.951,0.9548,0.9548,0.96,0.9607,0.9625,0.9681,0.9685,0.9661,0.9663,0.9665,0.9666,0,0,0,0,0,0,0,0.9327,0.9339,0.9447,0.9439,0.9444,0.9453,0.9464,0.9502,0.9555,0.9514,0.9517,0.9528,0.9602,0.9622,0.9628,0.9686,0.9661,0.9664,0.9667,0.9668,0.9767,0.9767,0,0,0,0,0,0,0.9317,0.9334,0.9444,0.945,0.9388,0.9456,0.9468,0.9493,0.9555,0.9564,0.9528,0.953,0.9615,0.9623,0.9631,0.9667,0.9665,0.9669,0.9671,0.9767,0.9767,0.9767,0,0,0,0,0,0,0.9313,0.9326,0.944,0.9393,0.9408,0.9459,0.9486,0.9495,0.9514,0.9565,0.9575,0.9538,0.9615,0.9626,0.9665,0.9671,0.967,0.9674,0.9766,0.9767,0.9767,0.9739,0,0,0,0,0,0,0.9309,0.9325,0.9337,0.9393,0.941,0.9473,0.9487,0.9497,0.9521,0.9524,0.9577,0.9586,0.9616,0.9658,0.9668,0.9677,0.9677,0.9766,0.9767,0.9767,0.974,0.9739,0.9738,0,0,0,0,0,0.9303,0.9325,0.9337,0.935,0.9427,0.9473,0.9483,0.9518,0.9521,0.9533,0.9566,0.9584,0.9669,0.9662,0.9674,0.9683,0.9766,0.9766,0.9767,0.974,0.9739,0.9738,0,0,0,0,0,0,0.9268,0.9333,0.9347,0.9388,0.9425,0.948,0.9497,0.9515,0.9551,0.9552,0.9593,0.9604,0.9639,0.9665,0.9657,0.9712,0.9719,0.9722,0.9694,0.9694,0.9692,0.9686,0.968,0,0,0,0,0,0.9265,0.9298,0.9353,0.9383,0.9401,0.9445,0.9467,0.949,0.953,0.9545,0.9581,0.9617,0.9652,0.9674,0.9709,0.9743,0.9755,0.9755,0.9754,0.9753,0.9755,0.9774,0.9775,0.9769,0.9769,0.9769,0,0,0.9258,0.9298,0.9317,0.9377,0.9408,0.9441,0.9458,0.9492,0.9516,0.955,0.9589,0.9616,0.9659,0.9696,0.9714,0.9718,0.9759,0.9754,0.9753,0.9756,0.9775,0.9775,0.9776,0.977,0.977,0.977,0,0,0.9264,0.9298,0.9326,0.9357,0.9405,0.9434,0.944,0.9493,0.9513,0.9552,0.9578,0.9606,0.9666,0.9695,0.9718,0.9732,0.975,0.9742,0.9737,0.9755,0.9756,0.9756,0.9761,0.9762,0.9744,0.9744,0.9744,0,0.925,0.9302,0.9338,0.9371,0.9396,0.9428,0.9457,0.9484,0.954,0.9556,0.956,0.9635,0.9666,0.9709,0.9713,0.973,0.9738,0.9737,0.9753,0.9754,0.9755,0.976,0.9761,0.9743,0.9743,0.9743,0.9743,0,0.9282,0.9316,0.9334,0.9388,0.9414,0.9444,0.9484,0.9507,0.9527,0.9555,0.9594,0.9633,0.9676,0.9687,0.9708,0.9733,0.9734,0.9745,0.9753,0.9753,0.9759,0.9761,0.9741,0.9742,0.9742,0.9742,0,0,0.9269,0.9342,0.9347,0.9372,0.9426,0.9453,0.9483,0.9526,0.9544,0.958,0.9606,0.9655,0.9665,0.969,0.9714,0.9729,0.9737,0.9738,0.974,0.9736,0.9767,0.9759,0.9761,0.9749,0.975,0.975,0.9763,0,0.9281,0.9339,0.9373,0.9416,0.9448,0.9479,0.9505,0.954,0.9566,0.9596,0.9625,0.9659,0.9669,0.9685,0.9702,0.9733,0.9744,0.9732,0.9773,0.9774,0.9762,0.9764,0.9755,0.9766,0.9766,0.9766,0.9766,0,0.9304,0.9341,0.9388,0.9438,0.9452,0.9476,0.9516,0.9545,0.9584,0.9602,0.963,0.9653,0.9685,0.9689,0.9733,0.9724,0.9742,0.976,0.9761,0.9767,0.9771,0.9769,0.977,0.9772,0.977,0.977,0.9769,0,0.929,0.9351,0.9387,0.9407,0.9465,0.9481,0.9505,0.9545,0.9568,0.9603,0.9618,0.9656,0.9676,0.9704,0.9737,0.9737,0.9777,0.9784,0.9792,0.9791,0.98,0.9799,0.9804,0.9811,0.9811,0.9811,0.9811,0,0.9301,0.9328,0.9381,0.9403,0.9434,0.9471,0.95,0.9527,0.9562,0.9588,0.9616,0.964,0.9681,0.971,0.9735,0.9767,0.9776,0.9791,0.9797,0.9788,0.9786,0.9801,0.9801,0.9811,0.9811,0.9811,0.9811,0,0.929,0.9327,0.9368,0.9419,0.9433,0.9453,0.9497,0.9519,0.9546,0.9579,0.9589,0.9632,0.9667,0.9702,0.9749,0.9765,0.9797,0.9805,0.9784,0.9787,0.9793,0.9792,0.9809,0.9813,0.9816,0.9816,0.9816,0,0.9295,0.9317,0.9371,0.9391,0.9416,0.9448,0.9472,0.9508,0.9531,0.9577,0.9592,0.963,0.9662,0.9716,0.975,0.9786,0.9796,0.9799,0.9801,0.9791,0.9796,0.9794,0.9796,0.9798,0.9798,0.9797,0.9797,0,0.9299,0.9316,0.935,0.9389,0.9417,0.945,0.9483,0.9498,0.954,0.9564,0.9601,0.9625,0.9673,0.971,0.9749,0.9773,0.9792,0.9796,0.98,0.9792,0.9778,0.9785,0.9781,0.9796,0.9796,0.9796,0.9796,0.9796,0.9297,0.9317,0.9358,0.9394,0.9423,0.9454,0.9477,0.9507,0.9538,0.9581,0.96,0.9636,0.9673,0.9729,0.9752,0.978,0.9785,0.9791,0.9792,0.9793,0.9791,0.9773,0.9787,0.9787,0.9788,0.9788,0.9788,0,0.9303,0.933,0.9363,0.9409,0.9437,0.9453,0.949,0.9512,0.9544,0.9578,0.9609,0.965,0.9685,0.9721,0.9758,0.9773,0.9783,0.9782,0.9781,0.9786,0.9784,0.9778,0.9774,0.9774,0.9774,0.9774,0.9774,0.9774,0.9309,0.9344,0.9366,0.9415,0.9442,0.9479,0.9499,0.9526,0.9553,0.9599,0.9628,0.9652,0.9686,0.9725,0.9758,0.9767,0.9779,0.9776,0.9788,0.9786,0.9787,0.9787,0.9781,0.9778,0.9778,0.9788,0.9788,0.9788]},{"header":{"parameterUnit":"m.s-1","parameterCategory":1,"la1":30.2991,"la2":30.254,"lo1":-89.0895,"lo2":-89.0444,"dy":0.0017,"dx":0.0017,"nx":28,"ny":28,"refTime":"2024-07-16T21:00:00:Z","depth":0,"parameterNumber":3,"parameterNumberName":"V-component_of_WINDS"},"data":[0,0,0,0,0,0,0,0,0,0,0,0,0,0,0,0,0,0,0,0,0,0,0,0,0,0,0,0,0,0,0,0,0,0,0,0,0,0,0,0,0,0,0,0,0,0,0,0,0,0,0,0,0,0,0,0,0,0,4.9629,4.9629,0,4.9598,4.9598,4.9598,4.9527,4.9526,4.9525,4.9523,4.9494,4.9494,4.9495,0,0,0,0,0,0,0,0,0,0,0,0,0,4.9629,4.963,4.9629,4.9629,4.9628,4.9598,4.9598,4.9598,4.9528,4.9526,4.9524,4.9522,4.9493,4.9494,4.9495,0,0,0,0,0,0,0,0,0,0,0,0,0,4.9617,4.963,4.9629,4.959,4.9586,4.9598,4.9598,4.9597,4.9528,4.9526,4.9524,4.9522,4.9493,4.9494,4.9495,4.9544,0,0,4.9498,4.9498,0,0,0,0,0,0,0,0,4.9618,4.9617,4.9596,4.9593,4.9588,4.9564,4.9587,4.958,4.9529,4.955,4.9523,4.9521,4.9519,4.9518,4.9517,4.9542,4.9541,4.9498,4.9498,4.9498,4.9499,0,0,0,0,0,0,0,4.9619,4.9618,4.9617,4.9596,4.9591,4.9574,4.957,4.9585,4.9547,4.9548,4.9543,4.954,4.9517,4.9516,4.9516,4.9541,4.9498,4.9498,4.9499,4.9499,4.9605,4.9607,0,0,0,0,0,0,4.9625,4.9619,4.9618,4.9616,4.9598,4.9576,4.9571,4.9574,4.9547,4.9541,4.9542,4.9537,4.9516,4.9515,4.9514,4.9569,4.9498,4.9499,4.95,4.9602,4.9605,4.9608,0,0,0,0,0,0,4.9625,4.9626,4.9619,4.9616,4.9614,4.9578,4.9582,4.9575,4.9574,4.9542,4.9535,4.9548,4.9514,4.9513,4.9537,4.9567,4.95,4.95,4.96,4.9603,4.9606,4.968,0,0,0,0,0,0,4.9626,4.9626,4.9644,4.9617,4.9615,4.9642,4.9584,4.9576,4.9576,4.9569,4.9546,4.9541,4.9512,4.9536,4.9538,4.9567,4.9501,4.9597,4.9601,4.9605,4.9675,4.9686,4.9695,0,0,0,0,0,4.9626,4.9666,4.9645,4.9645,4.9636,4.9644,4.9642,4.9608,4.9578,4.9596,4.9576,4.9541,4.9564,4.9539,4.954,4.9571,4.9595,4.96,4.9605,4.967,4.9683,4.9695,0,0,0,0,0,0,4.9698,4.9662,4.9638,4.9671,4.9661,4.9632,4.9653,4.9623,4.9622,4.9616,4.9574,4.957,4.9599,4.9587,4.956,4.9616,4.9574,4.9579,4.9623,4.9635,4.9645,4.9647,4.9502,0,0,0,0,0,4.9718,4.9727,4.9695,4.9727,4.9723,4.9689,4.9691,4.9666,4.9654,4.965,4.9631,4.9621,4.9626,4.963,4.9633,4.9673,4.9667,4.9695,4.9705,4.9713,4.9718,4.9739,4.975,4.9625,4.9625,4.9624,0,0,4.9759,4.974,4.9748,4.9741,4.973,4.9741,4.9686,4.97,4.9707,4.9652,4.9673,4.9659,4.9645,4.9678,4.9691,4.9669,4.9752,4.972,4.9727,4.9727,4.9745,4.9757,4.9768,4.9628,4.9628,4.9627,0,0,4.9838,4.9825,4.985,4.984,4.9824,4.9802,4.9808,4.9783,4.9772,4.9792,4.9751,4.976,4.9769,4.9761,4.9758,4.9835,4.9803,4.9837,4.989,4.991,4.992,4.9928,4.9955,4.9966,4.9843,4.9843,4.9843,0,4.9891,4.9905,4.9867,4.9883,4.9881,4.9831,4.9856,4.9849,4.9835,4.9835,4.9811,4.9821,4.9809,4.9838,4.9857,4.9856,4.9862,4.9839,4.9921,4.9929,4.9937,4.9962,4.9973,4.9847,4.9847,4.9846,4.9846,0,4.997,4.998,5.0003,4.999,4.9991,5.0011,4.9977,4.9983,4.9958,4.9938,4.9959,4.9943,4.9941,4.9946,4.9922,4.9972,4.9959,4.9929,4.9885,4.9954,4.9977,4.9986,4.9853,4.9852,4.985,4.9849,0,0,5.0094,5.006,5.0069,5.0062,5.0041,5.0049,5.0068,5.0065,5.007,5.0063,5.0078,5.0087,5.0058,5.0055,5.003,5.0048,5.011,5.0015,5.0014,5.0033,5.0164,5.0187,5.0198,5.0089,5.009,5.0092,5.0165,0,5.0168,5.0197,5.0164,5.02,5.0209,5.0162,5.0179,5.0168,5.015,5.0156,5.0136,5.0143,5.0105,5.0103,5.0119,5.0099,5.0135,5.0093,5.0102,5.0103,5.0106,5.0211,5.0234,5.0304,5.0174,5.0175,5.0176,0,5.0258,5.0254,5.0291,5.0268,5.027,5.0286,5.0281,5.0287,5.0274,5.0259,5.0256,5.0226,5.0243,5.0201,5.0224,5.0196,5.0198,5.0189,5.0191,5.019,5.0143,5.0212,5.0326,5.0336,5.019,5.0189,5.0188,0,5.0344,5.0348,5.0371,5.0367,5.034,5.0352,5.0342,5.0326,5.0327,5.0323,5.0323,5.0322,5.0321,5.0321,5.0291,5.0264,5.0319,5.0274,5.0307,5.0308,5.032,5.032,5.0436,5.0323,5.0323,5.0323,5.0322,0,5.043,5.0455,5.0409,5.0423,5.0449,5.0411,5.0438,5.0423,5.041,5.0421,5.0381,5.0392,5.0351,5.0358,5.0335,5.0358,5.0358,5.0347,5.034,5.035,5.0352,5.0351,5.0345,5.0325,5.0325,5.0324,5.0324,0,5.053,5.0501,5.0522,5.0495,5.0489,5.0509,5.0486,5.0498,5.0478,5.0492,5.0493,5.0461,5.0467,5.0437,5.0438,5.0423,5.0457,5.0443,5.0461,5.0457,5.0491,5.0488,5.061,5.0624,5.0503,5.0504,5.0505,0,5.0587,5.0604,5.0579,5.0583,5.0574,5.0581,5.0581,5.0545,5.0548,5.0534,5.0548,5.0551,5.0551,5.0562,5.054,5.054,5.0525,5.0568,5.0525,5.0534,5.0525,5.0525,5.0526,5.0577,5.0578,5.0579,5.058,0,5.069,5.0675,5.0676,5.0673,5.0675,5.0671,5.0664,5.067,5.063,5.0635,5.064,5.064,5.0641,5.0644,5.064,5.063,5.0599,5.0594,5.0602,5.0612,5.0622,5.0616,5.0485,5.0591,5.059,5.0589,5.0589,5.0588,5.077,5.0783,5.0767,5.0771,5.0762,5.0756,5.0766,5.0747,5.075,5.0747,5.0726,5.0736,5.0723,5.0714,5.0707,5.0714,5.0694,5.0705,5.0708,5.0711,5.0717,5.0621,5.0713,5.0713,5.0712,5.0712,5.0712,0,5.087,5.0858,5.0861,5.0853,5.0856,5.0826,5.0817,5.0822,5.083,5.082,5.0821,5.0827,5.083,5.0808,5.0808,5.0818,5.0804,5.0819,5.0818,5.0816,5.0735,5.0728,5.083,5.083,5.083,5.083,5.083,5.083,5.0923,5.0944,5.0927,5.0943,5.093,5.0939,5.0936,5.0931,5.0923,5.0932,5.0933,5.0919,5.0904,5.0903,5.0904,5.0898,5.0899,5.092,5.0908,5.0833,5.0822,5.0811,5.0804,5.092,5.0921,5.0988,5.0989,5.099]}]]